STARLINK-2455

Last updated on Sat May 08 2021 00:02:04 GMT+0000 (Coordinated Universal Time)

1 48117U 21027AB 21127.58334491 -.00056400 00000-0 -39921-3 0 9997 2 48117 53.0474 191.7661 0002397 19.1986 274.3573 15.73244672 1779

Satellite not in orbit